Regional Weather Roundup
Issued by NWS

Home | Current Version | Previous Version | Graphics & Text | Print | Product List | Glossary On
Versions: 1 2 3 4 5 6 7 8 9 10 11 12 13 14 15 16 17 18 19 20 21 22 23 24 25 26 27 28 29 30 31 32 33 34 35 36 37 38 39 40 41 42 43 44 45 46 47 48 49 50
000
ASUS43 KOAX 270002
RWRNE

WEATHER ROUNDUP FOR NEBRASKA
NATIONAL WEATHER SERVICE OMAHA NE
700 PM CDT MON JUN 26 2017

NOTES: SATELLITE DATA IS BEING USED TO AUGMENT CLOUD COVER ABOVE
       12000 FEET.
       "FAIR" INDICATES FEW OR NO CLOUDS BELOW 12,000 FEET WITH NO
       SIGNIFICANT WEATHER AND/OR OBSTRUCTIONS TO VISIBILITY.

  * THESE STATIONS DO NOT REPORT WEATHER SUCH AS RAIN...SNOW OR FOG.

NEZ001>004-019>022-054>056-270100-
NEBRASKA PANHANDLE

CITY           SKY/WX    TMP DP  RH WIND       PRES   REMARKS
SCOTTSBLUFF    SUNNY     83  42  23 SE9       30.07F
6HR MIN TEMP:  78; 6HR MAX TEMP:  84;

ALLIANCE       SUNNY     80  37  21 E14       30.10F
6HR MIN TEMP:  75; 6HR MAX TEMP:  82;

CHADRON        SUNNY     81  37  20 SE12      30.06F
6HR MIN TEMP:  76; 6HR MAX TEMP:  82;

GORDON         FAIR      76  38  25 SE12      30.11F
6HR MIN TEMP:  72; 6HR MAX TEMP:  77;

KIMBALL        SUNNY     83  45  27 SE13      30.12F
SIDNEY         SUNNY     82  49  31 E13       30.12F
6HR MIN TEMP:  77; 6HR MAX TEMP:  86;

$$

NEZ057>060-069>072-079>082-270100-
SOUTHWEST NEBRASKA

CITY           SKY/WX    TMP DP  RH WIND       PRES   REMARKS
NORTH PLATTE   SUNNY     79  44  28 E12       30.11F
6HR MIN TEMP:  73; 6HR MAX TEMP:  82;

IMPERIAL       SUNNY     79  54  41 E13       30.10F
6HR MIN TEMP:  77; 6HR MAX TEMP:  87; 6HR PCP: TRACE;

LEXINGTON      SUNNY     78  49  36 E15       30.11F
MCCOOK         SUNNY     78  57  48 E15       30.10S
6HR MIN TEMP:  73; 6HR MAX TEMP:  84;

OGALLALA       SUNNY     81  40  23 E15       30.11F
$$

NEZ005>010-023>029-035>040-094-270100-
NORTH CENTRAL NEBRASKA

CITY           SKY/WX    TMP DP  RH WIND       PRES   REMARKS
VALENTINE      CLOUDY    77  35  21 E6        30.12F
6HR MIN TEMP:  75; 6HR MAX TEMP:  81;

AINSWORTH      MOSUNNY   72  41  32 E8        30.14F
BROKEN BOW     SUNNY     75  43  31 NE7       30.13F
6HR MIN TEMP:  74; 6HR MAX TEMP:  79;

O`NEILL        SUNNY     73  41  32 E9        30.14S
ORD            SUNNY     75  41  29 NE9       30.11F
6HR MIN TEMP:  75; 6HR MAX TEMP:  78;

THEDFORD       PTSUNNY   77  41  27 E10G17    30.14F
$$

NEZ041-046>049-061>064-073>077-083>087-270100-
SOUTH CENTRAL NEBRASKA

CITY           SKY/WX    TMP DP  RH WIND       PRES   REMARKS
GRAND ISLAND   SUNNY     75  51  43 NE15      30.11F
6HR MIN TEMP:  73; 6HR MAX TEMP:  79;

AURORA         SUNNY     75  49  40 E13       30.11S
HASTINGS       SUNNY     77  52  41 NE12      30.11F
6HR MIN TEMP:  73; 6HR MAX TEMP:  80;

HEBRON         MOSUNNY   72  64  75 E7        30.09S
HOLDREGE       MOSUNNY   76  53  45 E13       30.10S
KEARNEY *      SUNNY     77  50  38 E12       30.11S
YORK           SUNNY     75  52  43 NE14      30.10S
$$

NEZ011>018-030>034-042>045-270100-
NORTHEAST NEBRASKA

CITY           SKY/WX    TMP DP  RH WIND       PRES   REMARKS
NORFOLK        SUNNY     72  43  35 E8        30.12F
6HR MIN TEMP:  70; 6HR MAX TEMP:  75;

ALBION         SUNNY     75  43  31 E5        30.13S
BLAIR          MOSUNNY   73  49  41 N8        30.11S
FREMONT        MOSUNNY   74  46  37 NE7       30.12S
TEKAMAH        SUNNY     74  43  32 NE8       30.11S
6HR MIN TEMP:  72; 6HR MAX TEMP:  78;

WAYNE          SUNNY     72  43  35 N7        30.13S
$$

NEZ050>053-065>068-078-088>093-270100-
SOUTHEAST NEBRASKA

CITY           SKY/WX    TMP DP  RH WIND       PRES   REMARKS
LINCOLN        PTSUNNY   74  55  51 NE9       30.11S
6HR MIN TEMP:  68; 6HR MAX TEMP:  77; 6HR PCP:  0.01;

OMAHA EPPLEY   MOSUNNY   75  50  41 NE7       30.10S
6HR MIN TEMP:  71; 6HR MAX TEMP:  79;

BEATRICE       MOSUNNY   69  63  81 E7        30.11S
FALLS CITY     MOSUNNY   70  58  65 E6        30.10F
6HR MIN TEMP:  63; 6HR MAX TEMP:  71; 6HR PCP: TRACE;

NEBRASKA CITY  SUNNY     71  61  70 S3        30.11S
PLATTSMOUTH    MOSUNNY   73  56  53 E3        30.11S
$$

NEZ044-045-051>053-067-270100-
OMAHA AREA

CITY           SKY/WX    TMP DP  RH WIND       PRES   REMARKS
OMAHA EPPLEY   MOSUNNY   75  50  41 NE7       30.10S
6HR MIN TEMP:  71; 6HR MAX TEMP:  79;

BLAIR          MOSUNNY   73  49  41 N8        30.11S
FREMONT        MOSUNNY   74  46  37 NE7       30.12S
MILLARD        MOSUNNY   75  52  44 NE3       30.10S
OFFUTT AFB     SUNNY     73  51  44 NE7       30.10S
PLATTSMOUTH    MOSUNNY   73  56  53 E3        30.11S
WAHOO          FAIR      74  46  36 NE7       30.11S
$$




USA.gov is the U.S. government's official web portal to all federal, state and local government web resources and services.